Welcome to the New NWS' Forecast!
Most changes are behind the scenes, but click here for differences you might notice.
Latest weather observations around

Russellville, Russellville Regional Airport (KRUE)

Using English Units (Switch to International System of Units)
Date/ Time (CST) Wind (mph) Vis. (mi) Weather Sky Cond. Temp (°F) Rel. Humidity Wind Chill (°F) Heat Index (°F) Pressure Precip. (in)
Air Dwpt 6 hour Altimeter (inHg) Sea level (inHg) 1 hr 3 hr 6 hr
Max Min
Nov 22 03:53 N 11 10 Clear CLR 41 21     45% 34   30.31 30.3      
Nov 22 02:53 N 10 10 Clear CLR 43 22     43% 37   30.27 30.26      
Nov 22 01:53 NNW 5 10 Clear CLR 45 24     44% 43   30.25 30.23      
Nov 22 00:53 N 8 10 Clear CLR 47 26     44% 43   30.23 30.22      
Nov 21 23:53 NNW 6 10 Clear CLR 48 28     46% 45   30.22 30.21      
Nov 21 22:53   10 Clear CLR 50 29     44%     30.2 30.19      
Nov 21 21:53 N 9 10 Clear CLR 52 35     52%     30.18 30.17      
Nov 21 20:53 NNW 5 10 Clear CLR 48 41     77% 46   30.16 30.15      
Nov 21 19:53 NW 3 10 Clear CLR 50 43     77% 49   30.13 30.12      
Nov 21 18:53 NNW 3 10 Clear CLR 54 43     66%     30.09 30.09      
Nov 21 17:53 Calm 10 Clear CLR 53 44     71%     30.06 30.05      
Nov 21 16:53 WNW 6 10 Clear CLR 59 45     60%     30.02 30.01      
Nov 21 15:53 Calm 10 Clear CLR 61 44     54%     30 29.98      
Nov 21 14:53 NW 6 10 Clear CLR 62 45     53%     29.98 29.97      
Nov 21 13:53 3 10 Clear   62 45     53%     29.97 29.96      
Nov 21 12:53     Clear   60 45     57%     29.98 29.97      
Nov 21 11:53     Clear   55 43     64%     30 29.98      
Nov 21 10:53 5 10 Clear CLR 55 41     59%     30 29.99      
Nov 21 09:53 ESE 5 10 Clear CLR 51 37     59%     29.99 29.98      
Nov 21 08:53 ESE 3 10 Clear CLR 47 36     65% 46   29.98 29.97      
Nov 21 07:53 SSE 3 10 Clear CLR 42 35     76% 40   29.96 29.95      
Nov 21 06:53 Calm 10 Clear CLR 36 32     85%     29.94 29.93      
Nov 21 05:53 Calm 10 Clear CLR 34 31     88%     29.92 29.91      
Nov 21 04:53 Calm 10 Clear CLR 37 32     82%     29.91 29.9      
Nov 21 03:53 Calm 10 Clear CLR 38 33     82%     29.92 29.91      
Nov 21 02:53 Calm 10 Clear CLR 39 32     76%     29.94 29.93      
Nov 21 01:53 SE 3 10 Clear CLR 42 33     70% 40   29.92 29.91      
Nov 21 00:53 ESE 3 10 Clear CLR 38 33     82% 36   29.96 29.95      
Nov 20 23:53 Calm 10 Clear CLR 38 33     82%     29.99 29.98      
Nov 20 22:53 Calm 10 Clear CLR 40 32     73%     30 29.99      
Nov 20 21:53 Calm 10 Clear CLR 40 32     73%     29.99 29.98      
Nov 20 20:53 Calm 10 Clear CLR 43 31     62%     30.01 30      
Nov 20 19:53 SSE 6 10 Clear CLR 48 30     50% 45   30.01 30      
Nov 20 18:53 SSE 6 10 Clear CLR 51 30     44%     29.99 29.98      
Nov 20 17:53 SE 3 10 Clear CLR 52 31     44%     30.01 30      
Nov 20 16:53 SE 3 10 Clear CLR 55 30     38%     30 30      
Nov 20 15:53 S 5 10 Clear CLR 60 28     29%     30.01 30.01      
Nov 20 14:53 S 7 10 Clear CLR 60 27     28%     30.02 30.01      
Nov 20 13:53 SSW 8 10 Clear CLR 60 27     28%     30.05 30.04      
Nov 20 12:53 SSW 6 10 Clear CLR 60 27     28%     30.08 30.07      
Nov 20 11:53 SSE 10 10 Clear CLR 56 29     35%     30.13 30.12      
Nov 20 10:53 5 10 Clear CLR 54 30     40%     30.18 30.18      
Nov 20 09:53 5 10 Clear CLR 47 32     56% 45   30.21 30.21      
Nov 20 08:53 ESE 3 10 Clear CLR 40 32     73% 38   30.23 30.22      
Nov 20 07:53 Calm 10 Clear CLR 32 30     92%     30.22 30.22      
Nov 20 06:53 Calm 10 Clear CLR 28 28     100%     30.21 30.21      
Nov 20 05:53 Calm 10 Clear CLR 28 27     96%     30.2 30.19      
Nov 20 04:53 Calm 10 Clear CLR 29 28     96%     30.21 30.2      
Nov 20 03:53 Calm 10 Clear CLR 29 28     96%     30.2 30.2      
Nov 20 02:53 Calm 10 Clear CLR 30 28     92%     30.21 30.2      
Nov 20 01:53 Calm 10 Clear CLR 30 28     92%     30.22 30.21      
Nov 20 00:54 Calm   Clear   31 30     96%     30.23 30.22      
Nov 19 23:53 Calm 10 Clear CLR 32 30     92%     30.23 30.22      
Nov 19 22:53 Calm 10 Clear CLR 34 30     85%     30.24 30.24      
Nov 19 21:53 Calm 10 Clear CLR 35 30     82%     30.25 30.24      
Notice The following observation data may not be complete
Nov 19 20:53 ESE 3 10 Clear CLR   30      %     30.24 30.23      
Nov 19 19:53 WSW 3 10 Clear CLR 36 31     82% 33   30.23 30.22      
Nov 19 18:53 ESE 3 10 Clear CLR 39 30     70% 37   30.21 30.21      
Nov 19 17:53 Calm 10 Clear CLR 45 30     56%     30.21 30.2      
Nov 19 16:53 N 6 10 Clear CLR 56 22     26%     30.2 30.19      
Nov 19 15:53 NW 6 10 Clear CLR 59 21     23%     30.2 30.19      
Nov 19 14:53 NNW 11 10 Clear CLR 60 21     22%     30.21 30.2      
Nov 19 13:53 Calm 10 Clear CLR 58 26     29%     30.23 30.22      
Nov 19 12:53 3 10 Clear CLR 55 27     34%     30.25 30.24      
Nov 19 11:53 W 7 10 Clear CLR 53 26     35%     30.29 30.28      
Nov 19 10:53 NW 6 10 Clear CLR 52 26     36%     30.32 30.32      
Nov 19 09:53 NW 5 10 Clear CLR 49 26     41% 47   30.33 30.32      
Nov 19 08:53 WNW 7 10 Clear CLR 46 33     60% 42   30.31 30.3      
Nov 19 07:53 Calm 10 Clear CLR 34 34     100%     30.3 30.29      
Nov 19 06:53 Calm 10 Clear CLR 31 30     96%     30.27 30.27      
Nov 19 05:53 Calm 10 Clear CLR 32 31     96%     30.25 30.24      
Nov 19 04:53 Calm 10 Clear CLR 33 32     96%     30.24 30.23      
Notice The following observation data may not be complete
Nov 19 03:53 Calm 10 Clear CLR   32      %     30.22 30.22      
Jun 12 05:53 SSE 3 10 Clear CLR 71 69     93%   72 29.98 29.96      
Jun 11 01:53 5 10 Clear   72 64     76%   72 29.96 29.94      
Jun 10 16:53 S 8 10 Cloudy FEW047 OVC060 83 66     57%   85 29.91 29.89      
Jun 09 15:53 SSW 5 10 Clear CLR 80 56     44%   80 29.92 29.9      
Jun 08 07:53 Calm 10 Clear CLR 64 57     78%     30.04 30.02      
Jun 07 10:53 NNE 6 10 Clear CLR 77 56     48%   77 30.02 29.99      
Jun 06 06:42 Calm 1.5 Fog/Mist OVC002 68 67     96%     29.85        
Jun 06 04:53 Calm 9 Clear CLR 67 66     97%     29.83 29.81      
Jun 06 02:53 Calm 6 Fog/Mist CLR 68 67     96%     29.82 29.8      
Jun 06 01:22 WNW 3 1.5 Fog/Mist FEW002 68 67     96%     29.81        
Jun 05 23:18 Calm 2.5 Fog/Mist CLR 69 68     96%     29.82        
Jun 05 19:53 Calm 10 Clear CLR 74 71     91%   75 29.78 29.75      
Jun 05 15:00 ENE 8 1.75 Heavy Rain and Fog/Mist FEW029 BKN080 BKN090 75 71     88%   76 29.77   0